Voltar ao catálogo

SPiN-1

AtivoCiênciaSSO
NORAD 52751·PAYLOAD·🇩🇪 Germany

Lançado May 25, 2022 de Cape Canaveral Space Force Station

Loading…

Próximas Passagens (próximas 24 horas)

TLE

AtualizadoSource: Space-Track

Época: Sep 14, 2026, 13:22 UTC

1 52751U 22057V   26257.55744656  .00007861  00000-0  20247-3 0  9990
2 52751  97.6750  49.9056 0006669 129.0080 231.1760 15.39494148239457

Acompanhe SPiN-1 em tempo real com AllMySat

Download on the App Store